Location: Borea
(45.6167°N, 23.0167°E)
Time: 10:52:42
(UTC+00:00)

ATLAS CENTAUR R/B - Pass Details

Date: 03 February 2023
Orbit: 450 x 653 km, 64.7° (Epoch: 19 March)

Event Time Altitude Azimuth Distance (km) Brightness Sun altitude
Rises 17:18:03 0° 267° (W) 2,970 6.8 -17.9°
Reaches altitude 10° 17:21:13 10° 289° (WNW) 2,038 5.2 -18.5°
Maximum altitude 17:24:04 16° 327° (NNW) 1,654 4.1 -19.0°
Drops below altitude 10° 17:26:52 10° 6° (N) 1,982 4.0 -19.5°
Enters shadow 17:27:42 - 14° (NNE) 2,186 4.2 -19.6°
